Flag for Burkina Faso Weather past 2 weeks in Koudougou, Burkina Faso

Now
84 °F

Duststorm.


Feels Like: 81 °F
Forecast: N/A
Wind: 5 mph from Northeast

Location: Ouagadougou Airport

Current Time: Mar 5, 2015 at 10:33:44 PM

Latest Report: Mar 5, 2015 at 9:00 PM


Visibility: 3 mi

Pressure: 29.92 "Hg

Humidity: 19%

Dew point: 37 °F

Location of KoudougouLocation

Historic Weather in Koudougou — Graph

°F

Koudougou temperature yesterday

Maximum temperature yesterday: 97 °F (at 2:00 PM)
Minimum temperature yesterday: 70 °F (at 6:00 AM)
Average temperature yesterday: 83 °F

Past Weeks' High & Low Weather Summary

 TemperatureHumidityPressure
High102 °F (Feb 19, 3:00 PM)44% (Feb 19, 4:00 AM)30.07 "Hg (Feb 19, 4:00 AM)
Low64 °F (Feb 28, 5:00 AM)6% (Feb 27, 11:00 AM)29.74 "Hg (Feb 19, 3:00 PM)
Average81 °F17%29.92 "Hg
* Reported Feb 18 8:00 PM — Mar 5 8:00 PM, Koudougou, Weather by CustomWeather, © 2015

Note: Actual official high and low records may vary slightly from our data, if they occured in-between our weather recording intervals... More about our weather records

Advertising

Koudougou weather history for previous 24 hours

 ConditionsComfort  
Time TempWeatherWind HumidityBarometerVisibility
8:00 PM
Thu, Mar 5
88 °FDuststorm.1 mph16%29.89 "Hg3 mi
7:00 PM90 °FDuststorm.3 mph14%29.86 "Hg2 mi
6:00 PM95 °FDuststorm.6 mph12%29.86 "Hg2 mi
5:00 PM97 °FDuststorm.6 mph11%29.83 "Hg2 mi
4:00 PM99 °FDuststorm.7 mph10%29.83 "Hg2 mi
3:00 PM99 °FDuststorm.5 mph10%29.83 "Hg2 mi
2:00 PM100 °FDuststorm.5 mph10%29.86 "Hg2 mi
1:00 PM97 °FDuststorm.8 mph11%29.89 "Hg2 mi
12:00 PM95 °FDuststorm.8 mph12%29.92 "Hg2 mi
11:00 AM90 °FDuststorm.10 mph15%29.95 "Hg2 mi
10:00 AM90 °FDuststorm.12 mph15%29.98 "Hg2 mi
9:00 AM84 °FDuststorm.12 mph16%29.98 "Hg2 mi
8:00 AM81 °FDuststorm.8 mph17%29.95 "Hg1 mi
7:00 AM73 °FDuststorm.6 mph23%29.95 "Hg2 mi
6:00 AM72 °FClear.6 mph25%29.92 "Hg4 mi
5:00 AM72 °FClear.3 mph25%29.89 "Hg10 mi
4:00 AM73 °FClear.5 mph23%29.89 "Hg10 mi
3:00 AM75 °FClear.5 mph24%29.89 "Hg10 mi
2:00 AM77 °FClear.5 mph21%29.92 "Hg5 mi
1:00 AM77 °FClear.5 mph21%29.95 "Hg5 mi
12:00 AM79 °FClear.6 mph20%29.95 "Hg5 mi
11:00 PM
Wed, Mar 4
81 °FClear.5 mph18%29.98 "Hg5 mi
10:00 PM82 °FClear.6 mph16%29.95 "Hg4 mi
Weather by CustomWeather, © 2015

See weather overviewHow to use our weather pages